Time,TemperatureF,DewpointF,PressureIn,WindDirection,WindDirectionDegrees,WindSpeedMPH,WindSpeedGustMPH,Humidity,HourlyPrecipIn,Conditions,Clouds,dailyrainin,SoftwareType,DateUTC
2013-05-27 00:06:00,58.3,56.0,30.08,SSE,163,1.0,6.0,93,0.09,,,0.00,weatherlink.com 1.10,2013-05-27 04:06:00,
2013-05-27 00:21:00,58.1,56.0,30.07,WSW,246,0.0,5.0,93,0.09,,,0.00,weatherlink.com 1.10,2013-05-27 04:21:00,
2013-05-27 00:36:00,58.0,56.0,30.08,SE,145,1.0,4.0,93,0.08,,,0.00,weatherlink.com 1.10,2013-05-27 04:36:00,
2013-05-27 00:51:00,57.8,56.0,30.07,SSE,163,1.0,4.0,93,0.00,,,0.00,weatherlink.com 1.10,2013-05-27 04:51:00,
2013-05-27 01:06:00,57.6,56.0,30.07,West,271,0.0,6.0,94,0.00,,,0.00,weatherlink.com 1.10,2013-05-27 05:06:00,
2013-05-27 01:21:00,57.4,56.0,30.06,SE,142,1.0,3.0,94,0.00,,,0.00,weatherlink.com 1.10,2013-05-27 05:21:00,
2013-05-27 01:36:00,57.2,56.0,30.06,SSW,197,1.0,2.0,94,0.00,,,0.00,weatherlink.com 1.10,2013-05-27 05:36:00,
2013-05-27 01:51:00,57.3,56.0,30.06,ESE,117,0.0,4.0,95,0.00,,,0.00,weatherlink.com 1.10,2013-05-27 05:51:00,
2013-05-27 02:06:00,57.3,56.0,30.06,SSE,156,0.0,4.0,95,0.00,,,0.00,weatherlink.com 1.10,2013-05-27 06:06:00,
2013-05-27 02:21:00,57.4,56.0,30.06,East,96,0.0,4.0,95,0.00,,,0.00,weatherlink.com 1.10,2013-05-27 06:21:00,
2013-05-27 02:36:00,57.7,56.0,30.07,East,96,0.0,5.0,94,0.00,,,0.00,weatherlink.com 1.10,2013-05-27 06:36:00,
2013-05-27 02:51:00,57.9,56.0,30.05,SE,125,0.0,3.0,93,0.00,,,0.00,weatherlink.com 1.10,2013-05-27 06:51:00,
2013-05-27 03:06:00,57.4,55.0,30.05,East,85,2.0,3.0,93,0.00,,,0.00,weatherlink.com 1.10,2013-05-27 07:06:00,
2013-05-27 03:21:00,56.9,55.0,30.05,ESE,114,7.0,7.0,93,0.00,,,0.00,weatherlink.com 1.10,2013-05-27 07:21:00,
2013-05-27 03:36:00,56.9,55.0,30.05,SE,138,0.0,5.0,94,0.00,,,0.00,weatherlink.com 1.10,2013-05-27 07:36:00,
2013-05-27 03:51:00,57.0,55.0,30.04,ESE,103,0.0,4.0,94,0.00,,,0.00,weatherlink.com 1.10,2013-05-27 07:51:00,
2013-05-27 04:06:00,56.9,55.0,30.04,SE,126,1.0,4.0,94,0.00,,,0.00,weatherlink.com 1.10,2013-05-27 08:06:00,
2013-05-27 04:21:00,57.0,55.0,30.04,SW,232,0.0,5.0,94,0.00,,,0.00,weatherlink.com 1.10,2013-05-27 08:21:00,
2013-05-27 04:36:00,57.1,55.0,30.04,SSE,159,0.0,6.0,94,0.00,,,0.00,weatherlink.com 1.10,2013-05-27 08:36:00,
2013-05-27 04:51:00,57.0,55.0,30.04,East,96,1.0,6.0,94,0.00,,,0.00,weatherlink.com 1.10,2013-05-27 08:51:00,
2013-05-27 05:06:00,56.7,55.0,30.04,SSW,203,0.0,2.0,94,0.00,,,0.00,weatherlink.com 1.10,2013-05-27 09:06:00,
2013-05-27 05:21:00,56.7,55.0,30.04,ESE,116,0.0,3.0,94,0.00,,,0.00,weatherlink.com 1.10,2013-05-27 09:21:00,
2013-05-27 05:36:00,56.7,55.0,30.04,SE,129,0.0,3.0,94,0.00,,,0.00,weatherlink.com 1.10,2013-05-27 09:36:00,
2013-05-27 05:51:00,56.7,55.0,30.04,ESE,120,0.0,3.0,94,0.00,,,0.00,weatherlink.com 1.10,2013-05-27 09:51:00,
2013-05-27 06:06:00,56.5,55.0,30.04,SE,135,0.0,3.0,94,0.00,,,0.00,weatherlink.com 1.10,2013-05-27 10:06:00,
2013-05-27 06:21:00,56.3,55.0,30.04,SE,142,1.0,3.0,94,0.00,,,0.00,weatherlink.com 1.10,2013-05-27 10:21:00,
2013-05-27 06:36:00,56.4,55.0,30.04,East,99,0.0,5.0,94,0.00,,,0.00,weatherlink.com 1.10,2013-05-27 10:36:00,
2013-05-27 06:51:00,56.3,55.0,30.05,ESE,114,0.0,1.0,94,0.00,,,0.00,weatherlink.com 1.10,2013-05-27 10:51:00,
2013-05-27 07:06:00,56.2,55.0,30.05,ESE,107,0.0,3.0,94,0.00,,,0.00,weatherlink.com 1.10,2013-05-27 11:06:00,
2013-05-27 07:21:00,56.5,55.0,30.05,East,99,0.0,4.0,94,0.00,,,0.00,weatherlink.com 1.10,2013-05-27 11:21:00,
2013-05-27 07:36:00,57.1,55.0,30.05,SE,125,5.0,5.0,94,0.00,,,0.00,weatherlink.com 1.10,2013-05-27 11:36:00,
2013-05-27 07:51:00,58.2,56.0,30.04,SE,128,0.0,4.0,92,0.00,,,0.00,weatherlink.com 1.10,2013-05-27 11:51:00,
2013-05-27 08:06:00,59.1,56.0,30.03,SE,139,1.0,6.0,90,0.00,,,0.00,weatherlink.com 1.10,2013-05-27 12:06:00,
2013-05-27 08:21:00,59.5,56.0,30.02,SSW,210,0.0,5.0,89,0.00,,,0.00,weatherlink.com 1.10,2013-05-27 12:21:00,
2013-05-27 08:36:00,60.2,57.0,30.01,SE,131,1.0,4.0,88,0.00,,,0.00,weatherlink.com 1.10,2013-05-27 12:36:00,
2013-05-27 08:51:00,61.8,57.0,30.01,SSE,150,3.0,7.0,85,0.00,,,0.00,weatherlink.com 1.10,2013-05-27 12:51:00,
2013-05-27 09:06:00,63.9,58.0,30.01,SSW,200,1.0,7.0,82,0.00,,,0.00,weatherlink.com 1.10,2013-05-27 13:06:00,
2013-05-27 09:21:00,65.8,59.0,30.01,ESE,123,1.0,5.0,79,0.00,,,0.00,weatherlink.com 1.10,2013-05-27 13:21:00,
2013-05-27 09:37:00,66.5,59.0,30.00,SE,129,2.0,6.0,77,0.00,,,0.00,weatherlink.com 1.10,2013-05-27 13:37:00,
2013-05-27 09:52:00,67.9,59.0,30.00,South,184,2.0,7.0,74,0.00,,,0.00,weatherlink.com 1.10,2013-05-27 13:52:00,
2013-05-27 10:07:00,69.7,62.0,30.00,East,94,2.0,4.0,77,0.00,,,0.00,weatherlink.com 1.10,2013-05-27 14:07:00,
2013-05-27 10:22:00,70.8,61.0,29.99,SE,141,1.0,6.0,72,0.00,,,0.00,weatherlink.com 1.10,2013-05-27 14:22:00,
2013-05-27 10:37:00,72.1,61.0,30.00,South,191,2.0,4.0,69,0.00,,,0.00,weatherlink.com 1.10,2013-05-27 14:37:00,
2013-05-27 10:52:00,72.4,61.0,29.99,ESE,120,1.0,3.0,68,0.00,,,0.00,weatherlink.com 1.10,2013-05-27 14:52:00,
2013-05-27 11:07:00,73.5,62.0,29.99,SSE,159,2.0,7.0,68,0.00,,,0.00,weatherlink.com 1.10,2013-05-27 15:07:00,
2013-05-27 11:22:00,74.9,62.0,29.98,SSE,150,1.0,6.0,65,0.00,,,0.00,weatherlink.com 1.10,2013-05-27 15:22:00,
2013-05-27 11:37:00,75.8,63.0,29.98,SE,137,1.0,9.0,64,0.00,,,0.00,weatherlink.com 1.10,2013-05-27 15:37:00,
2013-05-27 11:52:00,76.6,63.0,29.98,SE,141,2.0,7.0,64,0.00,,,0.00,weatherlink.com 1.10,2013-05-27 15:52:00,
2013-05-27 12:07:00,77.3,64.0,29.98,ENE,73,1.0,6.0,64,0.00,,,0.00,weatherlink.com 1.10,2013-05-27 16:07:00,
2013-05-27 12:22:00,78.2,65.0,29.98,ESE,122,0.0,9.0,63,0.00,,,0.00,weatherlink.com 1.10,2013-05-27 16:22:00,
2013-05-27 12:37:00,78.0,65.0,29.97,East,92,0.0,4.0,65,0.00,,,0.00,weatherlink.com 1.10,2013-05-27 16:37:00,
2013-05-27 12:52:00,79.6,66.0,29.96,NE,47,2.0,6.0,64,0.00,,,0.00,weatherlink.com 1.10,2013-05-27 16:52:00,
2013-05-27 13:07:00,80.8,66.0,29.95,SSW,194,4.0,6.0,61,0.00,,,0.00,weatherlink.com 1.10,2013-05-27 17:07:00,
2013-05-27 13:22:00,80.6,67.0,29.94,SSE,160,3.0,6.0,63,0.00,,,0.00,weatherlink.com 1.10,2013-05-27 17:22:00,
2013-05-27 13:37:00,80.7,66.0,29.94,SSW,207,4.0,6.0,61,0.00,,,0.00,weatherlink.com 1.10,2013-05-27 17:37:00,
2013-05-27 13:52:00,81.2,66.0,29.93,ESE,106,1.0,9.0,61,0.00,,,0.00,weatherlink.com 1.10,2013-05-27 17:52:00,
2013-05-27 14:07:00,80.9,67.0,29.93,SE,128,2.0,7.0,63,0.00,,,0.00,weatherlink.com 1.10,2013-05-27 18:07:00,
2013-05-27 14:22:00,81.5,67.0,29.92,ESE,111,3.0,9.0,61,0.00,,,0.00,weatherlink.com 1.10,2013-05-27 18:22:00,
2013-05-27 14:37:00,82.2,66.0,29.92,South,172,5.0,11.0,59,0.00,,,0.00,weatherlink.com 1.10,2013-05-27 18:37:00,
2013-05-27 14:52:00,81.7,66.0,29.93,NE,48,2.0,12.0,59,0.00,,,0.00,weatherlink.com 1.10,2013-05-27 18:52:00,
2013-05-27 15:07:00,81.6,66.0,29.92,WNW,291,5.0,9.0,60,0.00,,,0.00,weatherlink.com 1.10,2013-05-27 19:07:00,
2013-05-27 15:23:00,81.4,66.0,29.92,East,94,3.0,10.0,59,0.00,,,0.00,weatherlink.com 1.10,2013-05-27 19:23:00,
2013-05-27 15:38:00,81.5,66.0,29.92,ENE,65,4.0,8.0,59,0.00,,,0.00,weatherlink.com 1.10,2013-05-27 19:38:00,
2013-05-27 15:53:00,81.6,66.0,29.91,ENE,63,3.0,11.0,59,0.00,,,0.00,weatherlink.com 1.10,2013-05-27 19:53:00,
2013-05-27 16:08:00,83.4,67.0,29.90,West,269,3.0,8.0,57,0.00,,,0.00,weatherlink.com 1.10,2013-05-27 20:08:00,
2013-05-27 16:23:00,82.6,67.0,29.90,ESE,108,0.0,11.0,60,0.00,,,0.00,weatherlink.com 1.10,2013-05-27 20:23:00,
2013-05-27 16:38:00,82.0,65.0,29.89,SE,133,1.0,8.0,56,0.00,,,0.00,weatherlink.com 1.10,2013-05-27 20:38:00,
2013-05-27 16:53:00,82.0,64.0,29.88,SE,138,7.0,11.0,55,0.00,,,0.00,weatherlink.com 1.10,2013-05-27 20:53:00,
2013-05-27 17:08:00,82.1,64.0,29.88,East,84,3.0,14.0,54,0.00,,,0.00,weatherlink.com 1.10,2013-05-27 21:08:00,
2013-05-27 17:23:00,81.8,63.0,29.87,NW,325,2.0,11.0,53,0.00,,,0.00,weatherlink.com 1.10,2013-05-27 21:23:00,
2013-05-27 17:38:00,81.4,63.0,29.87,NE,46,7.0,10.0,54,0.00,,,0.00,weatherlink.com 1.10,2013-05-27 21:38:00,
2013-05-27 17:53:00,80.6,62.0,29.88,SE,125,2.0,14.0,53,0.00,,,0.00,weatherlink.com 1.10,2013-05-27 21:53:00,
2013-05-27 18:08:00,80.4,62.0,29.87,WSW,250,1.0,6.0,54,0.00,,,0.00,weatherlink.com 1.10,2013-05-27 22:08:00,
2013-05-27 18:23:00,79.9,62.0,29.87,SSE,150,0.0,8.0,54,0.00,,,0.00,weatherlink.com 1.10,2013-05-27 22:23:00,
2013-05-27 18:38:00,79.5,62.0,29.87,SE,142,3.0,7.0,56,0.00,,,0.00,weatherlink.com 1.10,2013-05-27 22:38:00,
2013-05-27 18:53:00,79.3,62.0,29.86,ESE,105,4.0,7.0,55,0.00,,,0.00,weatherlink.com 1.10,2013-05-27 22:53:00,
2013-05-27 19:08:00,78.8,61.0,29.86,ESE,108,1.0,8.0,55,0.00,,,0.00,weatherlink.com 1.10,2013-05-27 23:08:00,
2013-05-27 19:23:00,78.4,61.0,29.85,WSW,238,2.0,7.0,56,0.00,,,0.00,weatherlink.com 1.10,2013-05-27 23:23:00,
2013-05-27 19:38:00,77.9,61.0,29.85,East,94,1.0,10.0,57,0.00,,,0.00,weatherlink.com 1.10,2013-05-27 23:38:00,
2013-05-27 19:53:00,77.7,62.0,29.85,SSE,153,2.0,8.0,58,0.00,,,0.00,weatherlink.com 1.10,2013-05-27 23:53:00,
2013-05-27 20:08:00,77.4,62.0,29.85,East,96,2.0,4.0,59,0.00,,,0.00,weatherlink.com 1.10,2013-05-28 00:08:00,
2013-05-27 20:23:00,76.9,61.0,29.85,SE,134,4.0,9.0,58,0.00,,,0.00,weatherlink.com 1.10,2013-05-28 00:23:00,
2013-05-27 20:38:00,76.8,61.0,29.85,SSE,163,0.0,8.0,58,0.00,,,0.00,weatherlink.com 1.10,2013-05-28 00:38:00,
2013-05-27 20:53:00,76.5,61.0,29.85,WNW,282,3.0,9.0,58,0.00,,,0.00,weatherlink.com 1.10,2013-05-28 00:53:00,
2013-05-27 21:08:00,76.2,61.0,29.85,ENE,61,2.0,8.0,59,0.00,,,0.00,weatherlink.com 1.10,2013-05-28 01:08:00,
2013-05-27 21:23:00,75.7,61.0,29.88,West,273,1.0,6.0,60,0.00,,,0.00,weatherlink.com 1.10,2013-05-28 01:23:00,
2013-05-27 21:38:00,69.2,64.0,29.89,West,281,2.0,7.0,84,0.10,,,0.10,weatherlink.com 1.10,2013-05-28 01:38:00,
2013-05-27 21:53:00,66.8,64.0,29.88,ESE,120,0.0,3.0,90,0.19,,,0.19,weatherlink.com 1.10,2013-05-28 01:53:00,
2013-05-27 22:08:00,66.0,64.0,29.88,SE,135,1.0,6.0,92,0.21,,,0.21,weatherlink.com 1.10,2013-05-28 02:08:00,
2013-05-27 22:23:00,65.0,63.0,29.89,NNE,32,2.0,8.0,93,0.26,,,0.26,weatherlink.com 1.10,2013-05-28 02:23:00,
2013-05-27 22:38:00,64.4,62.0,29.89,SSE,164,2.0,4.0,93,0.22,,,0.33,weatherlink.com 1.10,2013-05-28 02:38:00,
2013-05-27 22:53:00,64.1,62.0,29.88,SE,139,2.0,5.0,94,0.19,,,0.38,weatherlink.com 1.10,2013-05-28 02:53:00,
2013-05-27 23:08:00,63.7,62.0,29.86,SSW,200,0.0,6.0,94,0.18,,,0.39,weatherlink.com 1.10,2013-05-28 03:08:00,
2013-05-27 23:23:00,63.5,62.0,29.85,SE,138,2.0,7.0,95,0.14,,,0.40,weatherlink.com 1.10,2013-05-28 03:23:00,
2013-05-27 23:38:00,63.4,62.0,29.85,SE,133,1.0,6.0,95,0.07,,,0.40,weatherlink.com 1.10,2013-05-28 03:38:00,
2013-05-27 23:53:00,63.3,62.0,29.88,SW,222,1.0,8.0,95,0.02,,,0.40,weatherlink.com 1.10,2013-05-28 03:53:00,